{"data":{"norad_id":66002,"epoch":"2026-09-20T01:48:04.243968Z","epoch_age_seconds":177152,"freshness":"STALE","line1":"1 66002U 25231H   26263.07504912 -.00000099  00000+0  53400-4 0  9998","line2":"2 66002  50.0053 195.2906 0000446  62.6149 297.4768 13.29329046 45510","mean_motion":13.29329046,"eccentricity":4.46e-5,"inclination_deg":50.0053,"raan_deg":195.2906,"arg_perigee_deg":62.6149,"mean_anomaly_deg":297.4768,"bstar":5.34e-5,"rev_number":4551,"period_min":108.32532429296,"perigee_km":1148.9593495489,"apogee_km":1149.6307964898,"semimajor_km":7527.4320730194,"source":"CELESTRAK","updated_at":"2026-09-21T09:00:15.694462Z"}}